COSMOS 1247 DEB, 28270

Orbit data source: Space-Track

COSMOS 1247 DEB, 28270 is space debris in HEO originally from a launch on Thu, 19 Feb 1981 UTC launched from the Plesetsk Missile And Space Complex (PKMTR). Debris objects in space refer to the collection of defunct objects orbiting the Earth. Examples of debris include non-operational satellites, rocket bodies, and fragments generated from explosions, collisions, or faulty payload assembly.

Loading next visibility...
Identifier
28270, 1981-016L
Orbit
HEO
Country
Flag of CISCIS
Related business
Manufacturer
Unknown
Mission
Spacecraft
Bus & Motor
Unknown
Mass
Unknown
Launch date (UTC)
1981-02-19 (45 years ago)
Launch vehicle
Unknown
Launch site
Plesetsk Missile And Space Complex (PKMTR)
Object type
Payload
Rocket body
Debris
Shape & HBR
Unknown shape, 0.3 m
Radar Cross Section
Medium (>0.1 m² and <1 m²)

Expand to show TLE details & history
Last TLE update: 1 week ago

TLE from 1 week ago
0 COSMOS 1247 DEB
1 28270U 81016L   26166.49216503 -.00000830  00000-0  00000-0 0  9998
2 28270  69.1287 359.1270 6238986 340.9821   3.4570  2.02474798186074
Epoch: 2026-06-15T11:48Z
TLE epoch observation values (Epoch: 2026-06-15T11:48:43.058Z)
Latitude
-0.00169°
Longitude
-81.80782°
Altitude
3,790.02 km
Speed
7.957 km/s
True Right ascension
23h 56m 35s
True Declination
0° 00' 06"
Sunlit
Object was in daylight at epoch
Visualization orbit readout
Latitude
Unknown
Longitude
Unknown
Altitude
Unknown
Speed
Unknown
Apparent Right ascension
Unknown
Apparent Declination
Unknown
Sunlit
N/A
Visualization observer readout
Local Sidereal Time
00:29:09
Azimuth
Unknown
Elevation
Unknown
Doppler factor
Unknown
Orbital elements
Apogee altitude
36,479.599 km
Perigee altitude
3,547.886 km
Semi-major axis
26,391.879 km
Eccentricity
0.6239
Inclination
69.1287°
RAAN
359.127°
Arg. of periapsis
340.9821°
True anomaly
18.8353°
Mean anomaly
3.457°
Eccentric anomaly
9.1277°
Mean motion
0.50622 °/min
Orbital period
711.16 mins
BSTAR
0
Loading maneuver chart data...
Computing Atmospheric mass density...
Loading historical data...
Loading historical data...
Loading historical data...
Loading historical data...
Loading historical data...
Loading historical data...
Loading historical data...

Documentation

Showing up to 5 results
|